Tracking 27122 objects as of 25-Mar-2023
HD Live streaming from Space Station
objects crossing your sky now

CZ-4C DEB

Track CZ-4C DEB now!
10-day predictions


NORAD ID: 43418
Int'l Code: 2014-080G
Perigee: 892.1 km
Apogee: 1,305.8 km
Inclination: 63.4 °
Period: 107.1 minutes
Semi major axis: 7469 km
RCS: Unknown
Launch date: December 10, 2014
Source: People's Republic of China (PRC)
Launch site: Jiuquan Satellite Launch Center, China (JSC)

Note: This is SATELLITE DEBRIS
Your satellite tracking list
Your tracking list is empty




NASA's NSSDC Master Catalog

Two Line Element Set (TLE):
1 43418U 14080G   23080.70438877  .00000108  00000-0  26923-3 0  9994
2 43418  63.4006 127.0746 0276883   5.2215 355.1594 13.44699714385845
Source of the keplerian elements: AFSPC